Regional Weather Roundup
Issued by NWS

Home | Current Version | Previous Version | Graphics & Text | Print | Product List | Glossary On
Versions: 1 2 3 4 5 6 7 8 9 10 11 12 13 14 15 16 17 18 19 20 21 22 23 24 25 26 27 28 29 30 31 32 33 34 35 36 37 38 39 40 41 42 43 44 45 46 47 48 49 50
472
ASUS45 KSLC 260010
RWRUT

UTAH REGIONAL WEATHER ROUNDUP
NATIONAL WEATHER SERVICE SALT LAKE CITY UT
600 PM MDT TUE JUL 25 2017

UTZ001>011-023>025-260100-

NORTHERN UTAH

CITY           SKY/WX    TMP DP  RH WIND       PRES   REMARKS
BRIGHAM CITY   PTSUNNY   83  50  31 CALM      30.06F
HILL AFB       PTSUNNY   81  56  42 N6        30.10S
LOGAN          PTSUNNY   83  54  36 VRB7      30.08F
OGDEN          CLOUDY    83  54  36 N6        30.06F
SALT LAKE CITY CLOUDY    83  57  41 S8        30.06F
TOOELE VALLEY  CLOUDY    81  55  41 W6        30.07F
WENDOVER       MOSUNNY   87  54  32 SE10      30.03F
HEBER CITY     CLOUDY    72  55  56 CALM      30.17S
WEST JORDAN    CLOUDY    78  63  61 CALM      30.10F

$$

UTZ011>015-024>027-260100-

CENTRAL/NORTHEAST UTAH

CITY           SKY/WX    TMP DP  RH WIND       PRES   REMARKS
PROVO AIRPORT  CLOUDY    79  57  47 VRB6      30.11F
MOAB/CANYONLAN LGT RAIN  76  67  73 SE3       30.08F
DELTA          CLOUDY    79  54  41 SW3       30.10F
PRICE          CLOUDY    65  63  93 SE9       30.20S
RICHFIELD      SUNNY     73  59  60 CALM      30.18F
ROOSEVELT      PTSUNNY   72  61  68 S7        30.17F
VERNAL         LGT RAIN  72  62  71 CALM      30.16S

$$

UTZ013>016-019>022-027-260100-

SOUTHERN UTAH

CITY           SKY/WX    TMP DP  RH WIND       PRES   REMARKS
BRYCE CANYON   PTSUNNY   67  56  67 W9        30.32F
CEDAR CITY     PTSUNNY   72  62  71 SW16      30.18F
MILFORD        PTSUNNY   79  58  48 S16       30.12F
ST GEORGE      CLOUDY    80  66  62 NE3       30.07F
HANKSVILLE     CLOUDY    75  63  64 CALM      30.11F
KANAB          SUNNY     72  61  68 W7        30.21F
BLANDING       PTSUNNY   68  57  68 W24G46    30.29R

$$

REGIONAL REPORTS     COLORADO/ARIZONA

CITY           SKY/WX    TMP DP  RH WIND       PRES   REMARKS
CRAIG, CO      CLOUDY    70  58  65 N7        30.22F
GRAND JUNCTION PTSUNNY   77  64  64 W6        30.12F
RIFLE, CO      CLOUDY    76  60  57 W15       30.15F
MONTROSE, CO   LGT RAIN  66  63  90 SE10      30.24R
CORTEZ, CO     CLOUDY    80  60  50 CALM      30.18S
COLORADO CITY    N/A     73  63  68 W7        30.22F
PAGE, AZ       NOT AVBL
GRAND CANYON   PTSUNNY   65  60  84 SW7       30.31F
KINGMAN, AZ    CLOUDY    71  65  81 E5        30.12F
FLAGSTAFF, AZ  LGT RAIN  62  59  90 SW8       30.35F

$$

REGIONAL REPORTS    NEVADA/IDAHO/WYOMING

CITY           SKY/WX    TMP DP  RH WIND       PRES   REMARKS
LAS VEGAS, NV  PTSUNNY   85  64  49 NE10      30.02F
ELY, NY        LGT RAIN  77  56  48 MISG      30.17F
ELKO, NV       MOSUNNY   89  41  18 VRB3      30.04F
POCATELLO, ID  CLOUDY    84  48  28 E7        30.08F
BURLEY, ID     MOSUNNY   85  49  28 S6        30.02F
FORT BRIDGER,  CLOUDY    72  49  44 SW10      30.29S
EVANSTON, WY   CLOUDY    64  54  69 E7        30.27F
ROCK SPRINGS,  CLOUDY    71  52  50 NE9       30.24S
KEMMERER, WY     N/A     72  43  35 N5        30.27F

$$




USA.gov is the U.S. government's official web portal to all federal, state and local government web resources and services.